Temperature
17 16 15 14 14 14 13 13 13 13 12 12 12 12 12 12 12 12 13 13 13 13 13 14 14 14 15 15 15 16 16 16 16 16 16 16 17 17 17 17 18 18 18
17 16 15 14 14 13 13 13 13 12 12 12 12 12 12 12 12 12 12 12 13 13 13 13 14 14 14 15 15 15 15 16 16 16 16 16 16 16 17 17 17 18 17
16 16 15 14 14 13 13 13 12 12 12 12 12 12 12 12 12 12 12 12 13 13 13 13 13 14 14 14 14 15 15 15 16 16 16 16 16 16 16 17 17 17 17
16 15 15 14 14 13 13 13 12 12 12 12 12 12 12 12 12 12 12 12 12 12 13 13 13 13 13 14 14 14 15 15 15 15 15 15 16 16 16 16 17 17 17
16 15 15 14 14 13 13 12 12 12 12 12 12 12 12 12 12 12 12 12 12 12 12 13 13 13 13 13 14 14 14 15 15 15 15 15 15 15 16 16 16 16 17
16 15 15 14 13 13 13 12 12 12 12 12 12 12 12 12 12 12 12 12 12 12 12 12 13 13 13 13 13 14 14 14 14 15 15 15 15 15 15 16 16 16 16
16 15 15 14 13 13 13 12 12 12 12 12 12 12 11 11 11 12 12 12 12 12 12 12 12 12 13 13 13 13 14 14 14 14 14 15 15 15 15 15 15 15 15
16 15 15 14 13 13 13 12 12 12 12 12 12 11 11 11 11 11 11 11 11 11 11 12 12 12 12 13 13 13 13 14 14 14 14 14 14 15 15 15 15 15 15
16 15 15 14 14 13 13 12 12 12 11 11 11 11 11 11 11 11 11 11 11 11 11 11 12 12 12 13 13 13 13 13 13 14 14 14 14 14 14 15 15 14 14
16 16 15 14 14 13 13 12 12 12 11 11 11 11 11 11 11 11 11 11 11 11 11 11 12 12 12 12 12 13 13 13 13 13 13 13 14 14 14 14 14 14 14
16 16 15 14 14 13 13 12 12 12 12 11 11 11 11 11 11 11 11 11 11 11 11 11 11 12 12 12 12 12 12 13 13 13 13 13 13 14 14 14 14 14 14
16 16 15 14 14 13 13 13 12 12 12 11 11 11 11 11 11 11 11 11 11 11 11 11 11 11 12 12 12 12 12 12 12 13 13 13 13 13 13 13 14 14 14
16 16 15 15 14 14 13 13 13 12 12 12 11 11 11 11 11 11 11 11 11 11 11 11 11 11 11 12 12 12 12 12 12 12 13 13 13 13 13 13 13 13 14
17 16 15 15 14 14 14 13 13 12 12 12 11 11 11 11 11 11 11 11 11 11 11 11 11 11 11 11 11 12 12 12 12 12 12 12 13 13 13 13 13 13 13
17 16 16 15 15 14 14 13 13 12 12 12 12 11 11 11 11 11 11 11 11 11 11 11 11 11 11 11 11 12 12 12 12 12 12 12 13 13 13 13 13 13 13
17 17 16 16 15 15 14 13 13 12 12 12 12 11 11 11 11 11 11 11 11 11 11 11 11 11 11 12 12 12 11 12 12 12 12 12 12 13 13 13 13 13 13
17 17 17 16 16 15 14 14 13 13 12 12 12 12 11 11 11 11 11 11 11 11 11 11 11 11 11 11 12 12 11 11 12 12 12 12 12 12 12 12 12 12 13
17 17 17 16 16 15 14 14 13 13 13 12 12 12 11 11 11 11 11 11 11 11 11 11 11 11 11 11 12 12 11 11 11 12 12 12 12 12 12 12 12 12 12
18 17 17 16 16 15 15 14 14 13 13 13 12 12 12 12 12 11 11 11 11 11 11 11 11 11 11 11 11 12 11 11 11 11 12 12 12 12 12 12 12 12 12
18 17 17 16 16 15 15 14 14 14 13 13 12 12 12 12 12 12 11 11 11 11 11 11 11 11 11 11 11 11 11 11 11 11 11 12 12 12 12 12 12 12 12
18 17 17 16 16 15 15 15 14 14 13 13 13 13 12 12 12 12 12 11 11 11 11 11 11 11 11 11 11 11 11 11 11 11 11 11 12 12 12 12 12 12 12
18 18 17 16 16 16 15 15 15 14 14 14 13 13 13 12 12 12 12 11 11 11 11 11 11 11 11 11 12 11 11 11 11 11 11 11 11 12 12 12 12 12 11
18 18 17 17 16 16 16 15 15 15 14 14 14 13 13 13 12 12 12 11 11 11 11 11 11 11 11 11 11 11 11 12 11 11 11 11 11 11 11 11 11 11 11
18 18 17 17 16 16 16 16 15 15 15 14 14 14 13 13 13 13 12 12 11 11 11 11 11 11 11 11 11 11 11 11 11 11 11 11 11 11 11 11 11 11 11
18 18 17 17 17 16 16 16 16 16 15 15 14 14 14 13 13 13 13 12 12 12 11 11 11 11 11 11 11 11 11 11 11 11 11 11 11 11 11 11 11 11 11
18 18 17 17 16 16 16 16 16 16 15 15 14 14 14 14 14 13 13 13 13 13 12 12 12 11 11 11 11 11 11 11 11 11 11 10 11 11 11 11 11 11 11
Wind_Speed
4 5 6 7 8 9 10 10 10 10 9 8 8 8 7 7 6 6 7 7 7 7 7 6 7 6 7 7 8 7 7 6 5 4 4 5 7 7 7 7 7 8 8
5 5 6 6 8 9 10 10 10 10 10 8 8 7 8 7 6 5 6 7 6 6 6 6 6 6 6 7 7 7 6 5 5 4 3 4 5 6 8 7 8 9 8
6 6 6 7 7 9 10 9 10 10 10 9 7 7 6 6 5 6 5 6 6 6 6 6 6 6 6 6 7 7 8 6 6 5 4 3 5 4 5 8 8 8 7
4 5 6 7 7 8 9 9 10 10 10 9 8 9 7 7 7 7 6 6 5 5 5 6 6 6 5 6 6 7 7 7 6 6 6 4 2 3 4 5 7 8 8
3 4 5 6 7 8 8 9 9 9 10 9 8 8 8 7 7 7 7 7 6 5 5 5 5 5 5 6 6 6 7 6 7 6 6 6 4 4 4 4 5 5 6
3 3 4 5 6 7 7 8 9 9 9 9 8 8 9 9 9 8 8 7 6 5 5 5 5 5 4 5 5 6 7 7 8 8 7 6 5 6 5 4 4 5 4
2 3 4 5 6 6 7 7 8 9 9 9 9 9 9 9 8 8 8 8 6 6 6 5 5 4 4 5 5 5 6 7 7 7 7 7 7 6 5 5 4 4 3
2 3 4 4 5 6 6 7 8 8 9 9 9 9 8 7 6 8 8 7 6 6 7 6 5 5 5 5 4 4 5 5 6 7 7 6 6 6 6 5 5 4 4
3 3 3 4 4 5 5 6 7 8 8 8 9 8 9 8 8 8 8 7 7 6 7 6 6 5 4 4 4 3 4 4 5 5 6 6 5 5 5 6 6 6 5
3 3 3 3 4 4 4 5 6 7 7 8 8 7 8 8 8 8 8 8 8 7 7 7 6 5 4 3 3 3 3 3 4 4 5 5 5 5 5 5 6 6 6
4 3 3 3 3 3 4 4 5 6 6 7 8 8 8 8 8 8 8 8 7 7 6 6 6 5 4 3 3 3 3 3 4 4 5 6 6 5 4 4 5 5 5
4 4 3 3 3 3 4 4 5 5 5 6 7 7 7 7 8 8 8 8 7 7 7 6 5 5 4 3 2 2 3 3 4 4 5 6 5 6 5 4 5 5 6
5 4 4 3 3 3 3 4 4 5 5 5 6 7 7 8 8 8 8 8 8 7 7 6 6 5 5 3 3 2 2 3 4 4 5 5 5 6 5 5 5 5 5
6 5 4 4 3 3 3 3 3 4 4 5 5 6 7 7 8 8 8 8 8 8 8 7 7 6 5 5 4 3 2 2 2 3 4 4 5 5 5 5 6 5 6
7 6 6 4 4 3 3 3 3 3 3 4 5 6 6 6 6 7 7 8 8 9 8 8 8 7 6 6 6 4 3 2 2 2 2 2 2 2 3 3 4 5 6
7 6 6 5 5 4 3 2 2 2 3 3 4 5 5 5 6 7 7 8 8 8 8 8 8 7 6 8 8 7 3 2 2 2 1 1 2 2 3 2 2 4 6
7 7 6 6 5 4 3 2 2 2 2 2 3 3 4 5 5 6 6 7 7 8 8 8 8 7 8 9 8 8 4 3 2 2 1 0 0 2 2 3 5 4 5
7 7 6 6 5 4 3 3 2 2 2 2 2 2 3 4 5 5 6 6 6 7 7 8 8 7 8 10 9 8 4 3 3 2 2 1 1 1 1 2 2 2 2
5 6 6 6 5 5 4 4 3 3 2 2 2 2 2 3 4 5 5 5 6 6 6 6 6 6 7 9 9 8 4 4 4 4 4 3 3 4 3 0 2 1 1
4 5 6 6 6 5 5 5 4 4 3 3 2 2 2 3 3 4 4 5 5 5 5 5 5 6 6 9 9 9 3 4 4 4 4 6 6 5 5 1 2 3 3
5 5 6 6 6 6 6 7 6 5 4 3 3 3 3 3 3 3 3 4 4 4 4 5 4 5 6 6 8 9 4 4 4 4 4 5 7 6 6 3 3 3 2
4 6 6 6 6 6 7 8 7 6 5 4 4 4 4 4 3 3 3 3 3 3 3 4 4 3 3 5 6 7 7 6 3 3 4 5 7 6 6 5 6 4 2
4 5 6 6 6 7 8 9 7 6 6 6 6 6 5 5 4 4 4 4 3 3 3 3 3 3 3 2 2 3 4 5 3 3 5 4 4 2 4 5 3 1 3
4 5 6 6 6 7 8 9 7 6 7 8 8 7 7 6 6 5 5 4 4 4 4 3 3 3 2 2 2 1 1 1 0 1 2 2 2 2 3 2 2 2 3
3 4 6 7 7 6 7 8 7 8 9 9 9 8 7 7 6 6 5 6 5 4 5 5 4 4 3 2 3 4 3 3 2 2 1 1 1 1 2 2 2 2 3
2 3 5 6 7 6 7 7 7 8 10 10 9 8 7 7 7 7 6 9 9 6 8 9 8 5 4 2 3 4 4 4 5 4 2 2 2 1 2 2 2 2 3
Wind_Direction
329 341 339 338 338 343 342 340 336 340 341 339 334 332 330 326 324 325 325 315 306 299 282 273 268 261 254 250 243 237 230 224 212 212 226 227 231 232 221 225 227 223 220
320 337 336 339 342 344 344 341 340 341 342 338 328 321 319 315 320 321 321 320 316 307 293 278 271 259 255 250 245 232 230 222 202 202 205 218 220 230 228 220 222 223 213
313 331 338 340 341 344 346 340 339 337 340 337 330 326 324 317 326 330 324 321 318 309 300 290 280 269 260 254 247 234 226 222 208 204 196 201 217 202 215 223 220 221 217
298 322 332 338 340 344 342 340 342 341 342 339 338 336 333 331 330 327 324 319 313 309 302 293 283 275 265 256 249 239 233 225 215 207 213 218 205 203 204 214 220 215 216
294 315 326 332 338 343 342 343 345 346 348 346 344 335 336 335 333 331 331 329 327 321 313 301 287 277 268 264 257 248 238 229 223 214 203 207 210 217 219 212 211 214 216
286 306 321 328 336 342 344 345 347 349 350 348 345 346 342 340 340 342 340 335 329 325 328 317 298 286 276 267 260 251 240 236 230 224 215 208 201 205 210 214 210 214 212
282 305 317 327 335 341 344 344 347 347 350 349 349 349 346 340 340 339 337 335 332 331 332 328 312 304 292 278 266 255 246 238 234 228 224 221 219 211 209 211 206 213 210
265 290 309 320 327 336 341 342 345 346 350 351 351 348 350 344 342 339 335 332 331 333 332 328 319 310 299 287 269 264 252 242 235 231 225 224 224 217 211 208 198 205 212
254 278 299 310 320 331 339 342 342 344 349 351 349 348 348 346 342 340 339 335 333 332 334 331 328 327 313 296 279 264 255 244 236 233 228 224 223 220 214 209 204 204 213
248 267 291 304 315 326 331 338 339 341 347 348 350 349 346 347 344 341 344 342 342 338 331 331 331 327 321 304 287 268 256 248 239 231 229 225 221 218 215 209 209 215 221
244 260 283 299 306 312 323 333 337 340 347 348 349 350 352 350 348 349 348 343 345 346 343 340 336 329 325 312 297 283 268 248 241 236 230 225 220 216 212 210 211 216 216
239 249 266 281 292 303 317 331 338 341 345 346 347 351 351 354 353 353 351 348 349 349 349 345 342 337 325 312 303 285 274 256 246 245 243 235 222 220 217 215 216 216 216
232 239 250 266 282 294 305 321 335 340 342 346 349 353 357 358 356 354 356 356 356 354 355 355 351 346 339 329 310 292 275 264 252 247 243 238 229 228 219 219 217 214 212
231 238 246 254 265 282 292 310 327 335 337 342 350 356 357 356 353 354 358 360 1 1 2 2 359 355 350 344 333 324 311 288 275 266 249 240 232 232 228 222 215 207 204
231 235 239 247 252 266 279 294 312 322 327 337 348 354 356 358 356 357 0 3 3 4 7 7 7 7 4 2 351 348 343 342 330 305 279 252 244 249 243 235 218 208 205
230 233 235 238 244 253 261 268 289 305 316 333 348 352 352 357 357 356 360 4 3 4 7 8 8 9 14 14 5 346 352 350 337 325 285 228 200 199 214 230 236 227 211
229 230 231 230 235 241 247 255 275 283 297 325 344 345 350 356 353 353 359 0 2 7 7 10 10 13 19 17 10 354 346 356 354 354 2 4 207 234 215 191 199 207 217
228 225 225 221 226 229 226 234 241 253 281 308 328 342 345 350 349 350 353 353 358 5 5 9 11 16 20 16 6 346 357 16 22 31 35 47 67 54 319 217 206 207 215
222 218 217 216 218 219 217 222 231 238 255 280 301 320 330 340 343 347 349 349 353 359 2 9 8 11 20 20 6 348 20 26 30 35 35 33 57 43 351 233 150 128 90
206 203 206 211 215 216 214 224 235 239 245 255 268 282 299 314 328 337 340 343 345 347 350 3 4 10 14 24 11 353 18 27 31 32 42 54 42 27 1 68 118 119 107
200 200 204 210 216 215 215 228 236 241 241 241 247 251 260 276 298 314 322 329 337 340 345 355 360 8 14 25 22 5 12 20 25 31 35 47 42 35 28 23 80 86 98
199 202 208 214 215 216 222 234 240 241 233 232 239 246 253 263 272 282 296 305 315 323 333 340 351 358 19 26 28 18 13 356 27 32 34 47 43 43 41 54 67 72 101
207 207 217 223 220 219 227 240 241 236 231 232 238 243 247 248 254 265 273 280 286 302 321 331 340 347 357 28 64 26 16 2 14 41 47 40 42 63 88 78 64 108 119
223 218 223 232 233 229 231 242 246 236 235 239 245 244 247 248 244 247 260 268 276 282 292 304 315 325 326 334 350 360 46 133 121 65 106 122 56 84 87 113 100 89 91
236 230 234 243 249 242 239 241 241 239 242 246 248 247 245 251 255 248 249 258 261 269 277 289 293 297 303 2 358 321 326 336 346 320 255 205 171 144 131 124 111 128 141
277 249 251 257 262 259 253 249 240 239 245 251 252 250 246 242 246 252 247 224 237 238 237 252 269 272 263 269 264 276 296 307 304 282 248 233 218 199 183 174 164 167 163
Height
1558 1557 1555 1553 1551 1548 1545 1542 1539 1536 1532 1529 1526 1523 1520 1518 1516 1513 1511 1510 1509 1508 1508 1508 1509 1509 1510 1511 1512 1514 1515 1517 1519 1522 1524 1525 1527 1530 1532 1534 1536 1538 1540
1556 1555 1554 1552 1550 1547 1544 1541 1538 1535 1531 1528 1524 1522 1519 1516 1514 1511 1509 1508 1506 1506 1505 1505 1505 1505 1506 1507 1508 1509 1511 1513 1515 1517 1520 1522 1524 1525 1527 1529 1532 1534 1536
1554 1554 1553 1551 1549 1546 1543 1540 1537 1534 1530 1527 1524 1520 1518 1515 1513 1510 1508 1506 1504 1503 1502 1502 1502 1502 1503 1503 1504 1506 1507 1509 1511 1513 1515 1517 1518 1521 1523 1525 1527 1530 1532
1553 1552 1551 1550 1548 1545 1542 1539 1536 1533 1530 1526 1523 1520 1517 1514 1511 1508 1506 1504 1502 1501 1500 1499 1499 1499 1499 1500 1501 1502 1503 1505 1507 1509 1511 1513 1514 1517 1518 1521 1523 1525 1527
1552 1551 1550 1549 1547 1544 1541 1538 1535 1532 1529 1526 1522 1519 1516 1513 1510 1507 1505 1503 1501 1499 1498 1497 1496 1496 1496 1496 1497 1498 1499 1501 1502 1504 1506 1508 1510 1513 1515 1516 1519 1521 1523
1550 1550 1549 1547 1546 1543 1540 1537 1534 1531 1528 1525 1522 1519 1516 1512 1509 1507 1504 1502 1500 1498 1496 1495 1494 1494 1493 1494 1494 1495 1496 1497 1499 1500 1502 1504 1506 1508 1511 1513 1514 1516 1519
1549 1548 1548 1546 1545 1542 1540 1537 1534 1531 1528 1525 1522 1519 1515 1512 1509 1506 1504 1501 1499 1497 1495 1493 1492 1491 1491 1491 1491 1492 1493 1494 1495 1497 1498 1500 1502 1504 1507 1509 1511 1513 1515
1547 1547 1546 1545 1543 1541 1539 1536 1533 1530 1527 1524 1521 1518 1515 1512 1509 1506 1503 1501 1498 1496 1494 1492 1491 1490 1489 1489 1489 1490 1490 1491 1492 1494 1495 1497 1499 1501 1503 1505 1507 1510 1511
1545 1545 1545 1544 1542 1540 1538 1536 1533 1530 1527 1524 1521 1518 1515 1512 1509 1506 1503 1500 1498 1495 1493 1491 1490 1489 1488 1487 1487 1487 1488 1488 1489 1491 1492 1494 1496 1497 1499 1501 1504 1507 1508
1544 1544 1543 1542 1541 1539 1537 1535 1532 1530 1527 1524 1521 1517 1514 1511 1508 1506 1503 1500 1497 1494 1492 1490 1489 1487 1486 1486 1485 1485 1485 1486 1487 1488 1490 1491 1492 1494 1496 1497 1499 1502 1504
1542 1542 1542 1541 1539 1538 1536 1534 1532 1529 1527 1524 1521 1518 1515 1511 1508 1506 1502 1499 1497 1494 1492 1490 1488 1486 1485 1485 1484 1484 1484 1484 1485 1486 1487 1489 1490 1491 1493 1494 1496 1498 1500
1540 1540 1540 1539 1538 1537 1535 1534 1531 1529 1526 1523 1521 1518 1514 1511 1508 1505 1502 1499 1497 1494 1492 1489 1487 1486 1485 1484 1483 1482 1482 1483 1483 1484 1485 1486 1487 1488 1490 1491 1493 1495 1497
1537 1538 1538 1537 1537 1536 1534 1533 1531 1528 1526 1523 1521 1518 1515 1512 1509 1506 1502 1500 1497 1495 1492 1489 1487 1485 1484 1483 1482 1481 1481 1481 1481 1481 1482 1483 1484 1485 1487 1488 1490 1491 1493
1535 1536 1536 1536 1535 1534 1533 1532 1530 1528 1525 1523 1521 1518 1515 1512 1509 1507 1504 1501 1498 1495 1492 1490 1487 1485 1483 1482 1481 1480 1480 1479 1479 1479 1479 1480 1481 1483 1484 1485 1487 1488 1490
1533 1533 1534 1534 1533 1533 1532 1530 1529 1527 1525 1523 1521 1518 1516 1513 1510 1507 1505 1502 1499 1496 1493 1490 1488 1485 1483 1481 1480 1480 1479 1479 1478 1477 1478 1478 1479 1480 1481 1483 1484 1485 1486
1530 1531 1531 1532 1532 1531 1530 1529 1528 1526 1524 1523 1520 1518 1516 1513 1511 1508 1506 1503 1500 1497 1494 1491 1488 1485 1483 1481 1480 1479 1478 1478 1477 1477 1477 1477 1478 1478 1479 1480 1481 1482 1483
1527 1528 1529 1529 1530 1530 1529 1528 1527 1525 1524 1522 1520 1518 1516 1514 1511 1509 1507 1504 1501 1498 1495 1492 1488 1486 1484 1482 1481 1479 1478 1478 1477 1477 1477 1476 1477 1477 1478 1478 1479 1480 1480
1524 1525 1526 1527 1527 1528 1527 1526 1525 1524 1523 1522 1520 1518 1516 1514 1512 1509 1507 1505 1502 1499 1496 1493 1490 1487 1486 1484 1482 1480 1479 1478 1478 1477 1477 1476 1476 1476 1476 1477 1477 1478 1478
1522 1523 1524 1525 1525 1526 1525 1525 1524 1523 1522 1521 1519 1518 1516 1514 1512 1510 1507 1505 1503 1500 1498 1495 1492 1490 1488 1485 1483 1481 1480 1479 1479 1478 1477 1477 1477 1476 1475 1476 1476 1476 1476
1520 1520 1521 1522 1523 1523 1523 1523 1523 1522 1521 1520 1518 1517 1515 1513 1512 1510 1508 1506 1504 1501 1499 1496 1494 1492 1489 1487 1485 1483 1482 1481 1480 1479 1478 1477 1476 1476 1476 1476 1475 1475 1475
1518 1518 1519 1520 1521 1521 1521 1521 1521 1521 1520 1518 1517 1516 1514 1513 1511 1509 1508 1506 1504 1502 1500 1498 1495 1493 1491 1489 1487 1485 1484 1482 1481 1480 1479 1478 1477 1477 1476 1476 1476 1476 1476
1516 1517 1517 1518 1518 1519 1519 1519 1519 1518 1517 1516 1515 1514 1513 1512 1510 1509 1507 1506 1504 1502 1501 1499 1497 1494 1492 1490 1488 1487 1485 1484 1483 1482 1481 1480 1479 1478 1477 1477 1477 1477 1478
1514 1515 1515 1516 1516 1516 1516 1517 1516 1516 1515 1514 1514 1513 1512 1510 1509 1508 1506 1505 1504 1502 1501 1499 1498 1496 1493 1491 1489 1488 1486 1485 1484 1483 1482 1481 1480 1480 1479 1479 1479 1479 1480
1512 1513 1513 1513 1514 1514 1514 1514 1514 1513 1513 1512 1512 1511 1510 1509 1507 1506 1505 1504 1503 1501 1500 1499 1497 1496 1494 1492 1490 1489 1487 1486 1485 1484 1483 1482 1482 1481 1480 1480 1480 1481 1481
1510 1510 1510 1511 1511 1511 1511 1511 1510 1510 1510 1509 1509 1508 1507 1506 1505 1504 1503 1501 1500 1499 1498 1497 1496 1495 1493 1492 1490 1488 1487 1486 1485 1484 1484 1483 1483 1482 1482 1482 1481 1482 1482
1508 1507 1508 1508 1508 1508 1508 1507 1507 1507 1506 1506 1506 1505 1504 1503 1502 1501 1500 1498 1497 1496 1495 1494 1493 1492 1491 1490 1489 1488 1487 1486 1485 1484 1484 1483 1483 1482 1482 1482 1482 1482 1482